Location: Newark
(7.0858°N, 171.3717°E)
Time: 12:23:07
(UTC+00:00)

Vanguard 1 Rocket - Pass Details

Date: 27 November 2020
Orbit: 655 x 4222 km, 34.3° (Epoch: 23 January)

Event Time Altitude Azimuth Distance (km) Brightness Sun altitude
Exits shadow 14:38:10 31° 19° (NNE) 5,043 10.9 -54.3°
Drops below altitude 10° 14:46:43 10° 40° (NE) 5,864 11.5 -52.4°
Sets 14:50:52 0° 48° (NE) 6,453 11.9 -51.4°
